Tiempo cada hora Dabrowka

Hoy, 18 Junio, Viernes

Tiempo Temperatura Precipitaciones Viento Presión Humedad
00:00 +17°C° 0 mm 3 mps 749 mmHg 77%
01:00 +17°C° 0 mm 3 mps 749 mmHg 78%
02:00 +17°C° 0 mm 2 mps 749 mmHg 80%
03:00 +16°C° 0 mm 2 mps 749 mmHg 83%
04:00 +16°C° 0 mm 2 mps 749 mmHg 86%
05:00 +18°C° 0 mm 3 mps 749 mmHg 80%
06:00 +20°C° 0 mm 3 mps 749 mmHg 74%
07:00 +22°C° 0 mm 4 mps 749 mmHg 68%
08:00 +25°C° 0 mm 4 mps 749 mmHg 63%
09:00 +26°C° 0 mm 5 mps 749 mmHg 57%
10:00 +28°C° 0 mm 5 mps 748 mmHg 51%
11:00 +29°C° 0 mm 5 mps 748 mmHg 49%
12:00 +29°C° 0 mm 5 mps 748 mmHg 47%
13:00 +30°C° 0 mm 5 mps 748 mmHg 46%
14:00 +30°C° 0 mm 5 mps 748 mmHg 47%
15:00 +30°C° 0 mm 5 mps 747 mmHg 48%
16:00 +30°C° 0 mm 4 mps 747 mmHg 49%
17:00 +28°C° 0 mm 4 mps 747 mmHg 56%
18:00 +27°C° 0 mm 4 mps 747 mmHg 63%
19:00 +25°C° 0 mm 4 mps 747 mmHg 70%
20:00 +24°C° 0 mm 3 mps 747 mmHg 74%
21:00 +22°C° 0 mm 3 mps 747 mmHg 78%
22:00 +20°C° 0 mm 3 mps 748 mmHg 82%
23:00 +20°C° 0 mm 3 mps 748 mmHg 84%

Mañana, 19 Junio, Sábado

Tiempo Temperatura Precipitaciones Viento Presión Humedad
00:00 +19°C° 0 mm 3 mps 747 mmHg 87%
01:00 +18°C° 0 mm 2 mps 747 mmHg 89%
02:00 +18°C° 0 mm 2 mps 747 mmHg 90%
03:00 +18°C° 0 mm 3 mps 747 mmHg 90%
04:00 +17°C° 0 mm 3 mps 747 mmHg 91%
05:00 +19°C° 0 mm 3 mps 747 mmHg 85%
06:00 +21°C° 0 mm 4 mps 747 mmHg 79%
07:00 +23°C° 0 mm 4 mps 747 mmHg 73%
08:00 +25°C° 0 mm 4 mps 747 mmHg 68%
09:00 +27°C° 0 mm 4 mps 747 mmHg 62%
10:00 +28°C° 0 mm 4 mps 747 mmHg 56%
11:00 +29°C° 0 mm 4 mps 747 mmHg 53%
12:00 +30°C° 0 mm 4 mps 746 mmHg 50%
13:00 +32°C° 0 mm 4 mps 746 mmHg 46%
14:00 +32°C° 0 mm 4 mps 746 mmHg 47%
15:00 +30°C° 0 mm 4 mps 746 mmHg 47%
16:00 +30°C° 0 mm 4 mps 746 mmHg 47%
17:00 +29°C° 0 mm 5 mps 746 mmHg 55%
18:00 +27°C° 0 mm 5 mps 745 mmHg 62%
19:00 +26°C° 0 mm 5 mps 745 mmHg 70%
20:00 +23°C° 0 mm 4 mps 746 mmHg 75%
21:00 +22°C° 0 mm 3 mps 746 mmHg 81%
22:00 +20°C° 0 mm 3 mps 746 mmHg 86%
23:00 +20°C° 0 mm 2 mps 746 mmHg 88%

Pasado mañana, 20 Junio, Domingo

Tiempo Temperatura Precipitaciones Viento Presión Humedad
00:00 +19°C° 0 mm 2 mps 746 mmHg 91%
01:00 +19°C° 0 mm 1 mps 746 mmHg 93%
02:00 +18°C° 0 mm 2 mps 746 mmHg 94%
03:00 +18°C° 0 mm 2 mps 745 mmHg 94%
04:00 +18°C° 0 mm 2 mps 745 mmHg 95%
05:00 +19°C° 0 mm 3 mps 745 mmHg 87%
06:00 +21°C° 0 mm 4 mps 745 mmHg 79%
07:00 +23°C° 0 mm 5 mps 745 mmHg 71%
08:00 +25°C° 0 mm 5 mps 745 mmHg 65%
09:00 +26°C° 0 mm 5 mps 745 mmHg 58%
10:00 +28°C° 0 mm 5 mps 745 mmHg 52%
11:00 +29°C° 0 mm 5 mps 744 mmHg 50%
12:00 +29°C° 0 mm 5 mps 744 mmHg 48%
13:00 +30°C° 0 mm 5 mps 743 mmHg 46%
14:00 +30°C° 0 mm 5 mps 743 mmHg 47%
15:00 +30°C° 0 mm 5 mps 743 mmHg 48%
16:00 +30°C° 0 mm 5 mps 742 mmHg 49%
17:00 +28°C° 0 mm 5 mps 742 mmHg 56%
18:00 +27°C° 0 mm 4 mps 742 mmHg 62%
19:00 +26°C° 0 mm 3 mps 742 mmHg 69%
20:00 +25°C° 0 mm 4 mps 742 mmHg 73%
21:00 +23°C° 0 mm 4 mps 742 mmHg 76%
22:00 +22°C° 0 mm 4 mps 742 mmHg 80%
23:00 +21°C° 0 mm 4 mps 741 mmHg 82%

21 Junio, Lunes

Tiempo Temperatura Precipitaciones Viento Presión Humedad
00:00 +21°C° 0 mm 4 mps 741 mmHg 84%
01:00 +20°C° 0 mm 3 mps 741 mmHg 87%
02:00 +20°C° 0 mm 3 mps 741 mmHg 89%
03:00 +19°C° 0 mm 3 mps 741 mmHg 91%
04:00 +19°C° 0 mm 3 mps 741 mmHg 92%
05:00 +21°C° 0 mm 4 mps 741 mmHg 84%
06:00 +22°C° 0 mm 4 mps 741 mmHg 76%
07:00 +25°C° 0 mm 5 mps 741 mmHg 68%
08:00 +26°C° 0 mm 5 mps 741 mmHg 62%
09:00 +28°C° 0 mm 4 mps 741 mmHg 56%
10:00 +29°C° 0 mm 4 mps 741 mmHg 49%
11:00 +30°C° 0 mm 4 mps 741 mmHg 47%
12:00 +32°C° 0 mm 4 mps 741 mmHg 44%
13:00 +31°C° 0 mm 3 mps 740 mmHg 41%
14:00 +31°C° 0 mm 3 mps 740 mmHg 42%
15:00 +31°C° 0 mm 3 mps 740 mmHg 42%
16:00 +32°C° 0 mm 4 mps 740 mmHg 43%
17:00 +29°C° 0 mm 3 mps 740 mmHg 52%
18:00 +28°C° 0 mm 3 mps 740 mmHg 62%
19:00 +26°C° 0 mm 3 mps 740 mmHg 71%
20:00 +25°C° 0.1 mm 3 mps 740 mmHg 76%
21:00 +23°C° 0.1 mm 2 mps 740 mmHg 80%
22:00 +21°C° 0.1 mm 2 mps 740 mmHg 85%
23:00 +21°C° 0.2 mm 2 mps 740 mmHg 87%

22 Junio, Martes

Tiempo Temperatura Precipitaciones Viento Presión Humedad
00:00 +21°C° 0.2 mm 1 mps 740 mmHg 90%
01:00 +21°C° 0.2 mm 1 mps 740 mmHg 92%
02:00 +21°C° 0.3 mm 1 mps 740 mmHg 92%
03:00 +21°C° 0.3 mm 1 mps 740 mmHg 93%
04:00 +21°C° 0.3 mm 1 mps 740 mmHg 93%
05:00 +21°C° 0.7 mm 1 mps 740 mmHg 91%
06:00 +22°C° 0.7 mm 1 mps 741 mmHg 89%
07:00 +23°C° 0.7 mm 1 mps 741 mmHg 87%
08:00 +24°C° 0.1 mm 1 mps 741 mmHg 83%
09:00 +24°C° 0.1 mm 1 mps 741 mmHg 80%
10:00 +25°C° 0.1 mm 1 mps 741 mmHg 76%
11:00 +26°C° 0.7 mm 1 mps 741 mmHg 70%
12:00 +28°C° 0.7 mm 1 mps 741 mmHg 64%
13:00 +29°C° 0.7 mm 2 mps 741 mmHg 59%
14:00 +29°C° 0.3 mm 2 mps 741 mmHg 58%
15:00 +29°C° 0.3 mm 2 mps 741 mmHg 57%
16:00 +29°C° 0.3 mm 2 mps 741 mmHg 56%
17:00 +28°C° 0.5 mm 2 mps 741 mmHg 66%
18:00 +26°C° 0.5 mm 2 mps 741 mmHg 75%
19:00 +24°C° 0.5 mm 2 mps 742 mmHg 84%
20:00 +23°C° 0 mm 2 mps 742 mmHg 87%
21:00 +21°C° 0 mm 2 mps 742 mmHg 91%
22:00 +20°C° 0 mm 2 mps 742 mmHg 94%
23:00 +20°C° 0 mm 2 mps 741 mmHg 94%

23 Junio, Miércoles

Tiempo Temperatura Precipitaciones Viento Presión Humedad
00:00 +21°C° 0 mm 1 mps 741 mmHg 94%
01:00 +21°C° 0 mm 1 mps 741 mmHg 94%
02:00 +20°C° 0 mm 1 mps 741 mmHg 95%
03:00 +20°C° 0 mm 1 mps 741 mmHg 95%
04:00 +20°C° 0 mm 1 mps 741 mmHg 95%
05:00 +20°C° 0 mm 2 mps 741 mmHg 91%
06:00 +23°C° 0 mm 2 mps 741 mmHg 86%
07:00 +24°C° 0 mm 2 mps 741 mmHg 81%
08:00 +26°C° 0 mm 2 mps 741 mmHg 74%
09:00 +28°C° 0 mm 3 mps 741 mmHg 66%
10:00 +29°C° 0 mm 3 mps 740 mmHg 59%
11:00 +29°C° 0.4 mm 5 mps 741 mmHg 61%
12:00 +28°C° 0.4 mm 6 mps 741 mmHg 64%
13:00 +28°C° 0.4 mm 8 mps 741 mmHg 66%
14:00 +27°C° 0.1 mm 8 mps 741 mmHg 62%
15:00 +26°C° 0.1 mm 8 mps 742 mmHg 59%
16:00 +24°C° 0.1 mm 8 mps 742 mmHg 56%
17:00 +21°C° 0 mm 8 mps 743 mmHg 63%
18:00 +17°C° 0 mm 8 mps 744 mmHg 70%
19:00 +14°C° 0 mm 7 mps 744 mmHg 76%
20:00 +14°C° 0 mm 7 mps 745 mmHg 76%
21:00 +12°C° 0 mm 7 mps 745 mmHg 76%
22:00 +12°C° 0 mm 7 mps 746 mmHg 76%
23:00 +11°C° 0 mm 7 mps 746 mmHg 75%
Mostrar más

Necesitamos Su Consentimiento

Meteoprog y nuestros Proveedores de Servicios pueden almacenar y acceder a sus datos personales como cookies, identificadores de dispositivo u otras tecnologías similares de su dispositivo y procesar dichos datos para personalizar contenido y anuncios, además de ofrecer funciones de redes sociales y analizar el tráfico.

  • Almacenar y/o acceder a información en su dispositivo

    Se puede almacenar o acceder a cookies, identificadores de dispositivo u otra información de su dispositivo para los fines anteriormente indicados.

  • Anuncios y contenido personalizados, medición de anuncios y contenido, percepciones del público, y desarrollo de productos

    Los anuncios y el contenido pueden personalizarse en base a su perfil. Se pueden añadir más datos para personalizar mejor los anuncios y contenidos. Se puede medir el rendimiento de los anuncios y contenidos. Se puede obtener la percepción sobre el público que ha visto los anuncios y contenidos. Dichos datos pueden usarse para desarrollar o mejorar la experiencia del usuario, sistemas y software.

Al hacer clic en ‘Estoy De Acuerdo’ usted permitirá el uso de las cookies, identificadores de dispositivo, balizas web u otras tecnologías similares indicadas. Su configuración puede cambiarse desde el navegador de su dispositivo.

Para ciertos fines, los intereses legítimos pueden ser considerados por encima del consentimiento. Puede leer más sobre ello en nuestra Política de Privacidad y Cookies.